Regional Weather Roundup
Issued by NWS

Home | Current Version | Previous Version | Graphics & Text | Print | Product List | Glossary On
Versions: 1 2 3 4 5 6 7 8 9 10 11 12 13 14 15 16 17 18 19 20 21 22 23 24 25 26 27 28 29 30 31 32 33 34 35 36 37 38 39 40 41 42 43 44 45 46 47 48 49 50
000
ASUS43 KOAX 271302
RWRNE

WEATHER ROUNDUP FOR NEBRASKA
NATIONAL WEATHER SERVICE OMAHA NE
800 AM CDT THU APR 27 2017

NOTES: SATELLITE DATA IS BEING USED TO AUGMENT CLOUD COVER ABOVE
       12000 FEET.
       "FAIR" INDICATES FEW OR NO CLOUDS BELOW 12,000 FEET WITH NO
       SIGNIFICANT WEATHER AND/OR OBSTRUCTIONS TO VISIBILITY.

  * THESE STATIONS DO NOT REPORT WEATHER SUCH AS RAIN...SNOW OR FOG.

NEZ001>004-019>022-054>056-271400-
NEBRASKA PANHANDLE

CITY           SKY/WX    TMP DP  RH WIND       PRES   REMARKS
SCOTTSBLUFF    SUNNY     38  35  89 E12       29.57S WCI  30
ALLIANCE       SUNNY     32  29  88 SE12      29.59S WCI  23
CHADRON        CLOUDY    32  29  88 NE7       29.62R WCI  26
KIMBALL        CLOUDY    41  40  95 W5        29.57S
SIDNEY         MOSUNNY   36  34  92 SE7       29.58S WCI  30
$$

NEZ057>060-069>072-079>082-271400-
SOUTHWEST NEBRASKA

CITY           SKY/WX    TMP DP  RH WIND       PRES   REMARKS
NORTH PLATTE   CLOUDY    38  33  82 E3        29.67S
IMPERIAL       CLOUDY    36  30  79 SE12      29.63R WCI  28
LEXINGTON      SUNNY     30  28  92 CALM      29.70S
MCCOOK         CLOUDY    34  31  88 E7        29.67F WCI  28
OGALLALA       CLOUDY    36  31  84 E9        29.64S WCI  29
$$

NEZ005>010-023>029-035>040-094-271400-
NORTH CENTRAL NEBRASKA

CITY           SKY/WX    TMP DP  RH WIND       PRES   REMARKS
VALENTINE      SUNNY     28  23  81 SW6       29.68R WCI  22
AINSWORTH      SUNNY     30  29  94 W7        29.68R WCI  23
BROKEN BOW     PTSUNNY   33  28  81 CALM      29.68R
O`NEILL        MOSUNNY   29  26  89 N6        29.70R WCI  23
ORD            SUNNY     32  27  81 N5        29.68R WCI  27
THEDFORD       PTSUNNY   33  32  96 CALM      29.68R
$$

NEZ041-046>049-061>064-073>077-083>087-271400-
SOUTH CENTRAL NEBRASKA

CITY           SKY/WX    TMP DP  RH WIND       PRES   REMARKS
GRAND ISLAND   SUNNY     32  29  88 W8        29.70S WCI  25
AURORA         SUNNY     34  30  88 NW8       29.70S WCI  27
HASTINGS       SUNNY     34  28  79 W7        29.72R WCI  28
HEBRON         SUNNY     34  30  85 CALM      29.73R
HOLDREGE       PTSUNNY   34  31  89 CALM      29.70R
KEARNEY *      CLOUDY    34  27  75 CALM      29.71R
YORK           SUNNY     32  30  93 NW8       29.72R WCI  25
$$

NEZ011>018-030>034-042>045-271400-
NORTHEAST NEBRASKA

CITY           SKY/WX    TMP DP  RH WIND       PRES   REMARKS
NORFOLK        CLOUDY    32  28  85 N12G18    29.68R WCI  23
ALBION         SUNNY     30  26  86 NW3       29.70R
BLAIR          CLOUDY    36  31  81 NW12      29.68R WCI  28
FREMONT        CLOUDY    37  31  80 NW7       29.71R WCI  31
TEKAMAH        CLOUDY    36  28  73 N14       29.70R WCI  27
WAYNE          CLOUDY    32  29  88 N12       29.69R WCI  23
$$

NEZ050>053-065>068-078-088>093-271400-
SOUTHEAST NEBRASKA

CITY           SKY/WX    TMP DP  RH WIND       PRES   REMARKS
LINCOLN        SUNNY     37  29  72 NW3       29.74R
OMAHA EPPLEY   CLOUDY    37  28  70 NW12      29.70R WCI  29
BEATRICE       SUNNY     35  30  84 W7        29.73R WCI  29
FALLS CITY     CLOUDY    41  33  73 W10       29.72R
NEBRASKA CITY  CLOUDY    41  30  64 NW8       29.71R
PLATTSMOUTH    CLOUDY    38  28  68 N3        29.70R
$$

NEZ044-045-051>053-067-271400-
OMAHA AREA

CITY           SKY/WX    TMP DP  RH WIND       PRES   REMARKS
OMAHA EPPLEY   CLOUDY    37  28  70 NW12      29.70R WCI  29
BLAIR          CLOUDY    36  31  81 NW12      29.68R WCI  28
FREMONT        CLOUDY    37  31  80 NW7       29.71R WCI  31
MILLARD        CLOUDY    39  32  75 NW7       29.70R WCI  34
PLATTSMOUTH    CLOUDY    38  28  68 N3        29.70R
WAHOO          PTSUNNY   36  30  79 NW8       29.71R WCI  30
$$



USA.gov is the U.S. government's official web portal to all federal, state and local government web resources and services.